Elkins, WV

10:11 AM EST on February 25, 2017 (GMT -0500)
Elkins-Randolph County

Weather History for KEKN - August, 2014

Change the Weather History Date:

Monday, August 11, 2014

  Actual Average Record
Temperature  
Mean Temperature 67 °F 70 °F  
Max Temperature 70 °F 81 °F 97 °F (1911)
Min Temperature 64 °F 59 °F 43 °F (1930)
Degree Days  
Heating Degree Days 0 0  
Month to date heating degree days 0 0  
Since 1 June heating degree days 47 67  
Since 1 July heating degree days 33 12  
Cooling Degree Days 2 5  
Month to date cooling degree days 31 55  
Year to date cooling degree days 355 336  
Since 1 June cooling degree days 319 313  
Growing Degree Days 17 (Base 50)    
Moisture  
Dew Point 60 °F    
Average Humidity 80    
Maximum Humidity 93    
Minimum Humidity 66    
Precipitation  
Precipitation 0.59 in 0.13 in 1.60 in (1961)
Month to date precipitation 1.41 1.48  
Year to date precipitation 26.55 30.45  
Snow  
Snow 0.00 in - - ()
Month to date snowfall 0.0  
Since 1 September snowfall 92.3  
Snow Depth 0.00 in    
Sea Level Pressure  
Sea Level Pressure 30.05 in    
Wind  
Wind Speed 7 mph (SSE)    
Max Wind Speed 14 mph    
Max Gust Speed 21 mph    
Visibility 8 miles    
Events Rain    
T = Trace of Precipitation, MM = Missing Value Source: NWS Daily Summary

Daily Weather History Graph

Daily Weather History Graph

Search for Another Location

Airport or City:

Trip Planner

Search our weather history database for the weather conditions in past years. The results will help you decide how hot, cold, wet, or windy it might be!

Date:

Astronomy

Aug. 11, 2014 Rise Set
Actual Time 6:29 AM EDT 8:19 PM EDT
Civil Twilight 6:00 AM EDT 8:47 PM EDT
Nautical Twilight 5:25 AM EDT 9:22 PM EDT
Astronomical Twilight 4:48 AM EDT 10:00 PM EDT
Moon 8:47 PM EDT (8/11) 7:31 AM EDT (8/11)
Length of Visible Light 14h 47m
Length of Day
13h 49m
Full, 99% of the Moon is Illuminated
Aug 11
Full
Aug 17
Last Quarter
Aug 25
New
Sep 2
First Quarter
Sep 8
Full

Hourly Weather History & Observations

Time (EDT) Temp. Dew Point Humidity Pressure Visibility Wind Dir Wind Speed Gust Speed Precip Events Conditions
12:51 AM 69.1 °F 57.9 °F 68% 30.10 in 10.0 mi SSE 4.6 mph - N/A   Overcast
1:51 AM 68.0 °F 57.9 °F 70% 30.09 in 10.0 mi SSE 4.6 mph - N/A   Overcast
2:51 AM 66.0 °F 57.9 °F 75% 30.08 in 10.0 mi SE 5.8 mph - N/A   Mostly Cloudy
3:51 AM 68.0 °F 59.0 °F 73% 30.06 in 10.0 mi SSE 6.9 mph - N/A   Overcast
4:51 AM 68.0 °F 59.0 °F 73% 30.09 in 10.0 mi SSE 4.6 mph - N/A   Overcast
5:51 AM 69.1 °F 59.0 °F 70% 30.05 in 10.0 mi SE 5.8 mph - N/A   Overcast
6:51 AM 68.0 °F 60.1 °F 76% 30.06 in 10.0 mi SSE 5.8 mph - N/A   Overcast
7:51 AM 69.1 °F 60.1 °F 73% 30.06 in 10.0 mi SSE 5.8 mph - N/A   Overcast
8:51 AM 68.0 °F 61.0 °F 78% 30.08 in 4.0 mi Variable 4.6 mph - 0.03 in Rain Light Rain
9:18 AM 64.9 °F 62.1 °F 90% 30.11 in 2.0 mi Calm Calm - 0.04 in Rain Rain
9:51 AM 64.9 °F 61.0 °F 87% 30.09 in 2.0 mi SW 3.5 mph - 0.11 in Rain Rain
10:00 AM 64.0 °F 62.1 °F 93% 30.11 in 1.2 mi South 3.5 mph - 0.05 in Rain Heavy Rain
10:51 AM 64.0 °F 63.0 °F 96% 30.08 in 2.5 mi Calm Calm - 0.36 in Rain Light Rain
10:58 AM 66.0 °F 63.0 °F 90% 30.09 in 5.0 mi SSE 4.6 mph - 0.00 in Rain Light Rain
11:51 AM 66.9 °F 62.1 °F 84% 30.08 in 5.0 mi South 3.5 mph - 0.01 in Rain Light Rain
12:51 PM 66.0 °F 61.0 °F 84% 30.07 in 3.0 mi SE 4.6 mph - 0.04 in Rain Rain
1:51 PM 68.0 °F 61.0 °F 78% 30.06 in 10.0 mi SSE 5.8 mph - 0.00 in   Overcast
2:51 PM 66.0 °F 60.1 °F 81% 30.06 in 8.0 mi SSE 6.9 mph - 0.04 in Rain Light Rain
3:51 PM 66.0 °F 59.0 °F 78% 30.03 in 10.0 mi South 5.8 mph - 0.00 in   Overcast
4:51 PM 66.9 °F 59.0 °F 76% 30.01 in 10.0 mi South 9.2 mph - 0.00 in   Scattered Clouds
5:51 PM 69.1 °F 59.0 °F 70% 29.99 in 10.0 mi SSE 10.4 mph 18.4 mph N/A   Partly Cloudy
6:51 PM 68.0 °F 59.0 °F 73% 29.98 in 10.0 mi South 10.4 mph - N/A   Scattered Clouds
7:51 PM 66.9 °F 59.0 °F 76% 29.99 in 10.0 mi SSE 9.2 mph - N/A   Overcast
8:51 PM 66.9 °F 59.0 °F 76% 29.99 in 10.0 mi SSE 6.9 mph - 0.00 in   Overcast
9:51 PM 66.9 °F 59.0 °F 76% 29.99 in 10.0 mi South 9.2 mph - N/A   Overcast
11:51 PM 68.0 °F 60.8 °F 78% 29.98 in 10.0 mi South 9.2 mph - N/A   Overcast